STARLINK-31153, 59044

Orbit data source: Space-Track

STARLINK-31153, 59044 is a payload satellite owned by SpaceX/Seattle (US) in LEO that was launched on Sun, 25 Feb 2024 UTC via an FALCON 9 launch vehicle from the Air Force Eastern Test Range (AFETR). Payload-class satellites include a variety of spacecraft equipped with specific instruments for various scientific and technological missions. These include communications satellites like Starlink; space stations such as the ISS; scientific satellites like the Hubble; Earth observation satellites from companies like Planet Labs, Umbra, and HawkEye 360; GPS; miniature CubeSats for education and research; and military/defense satellites.

Loading next visibility...
Identifier
59044, 2024-038X
Orbit
LEO
Country
Flag of USUS
Related business
Manufacturer
SpaceX/Seattle
Mission
Operational Commercial Communications
Bus & Motor
STARLINK V2M, Unknown motor
Mass
730 kg wet, ~700 kg dry
Launch date (UTC)
2024-02-25 (2 years ago)
Launch vehicle
FALCON 9
Launch site
Air Force Eastern Test Range (AFETR)
Object type
Payload
Rocket body
Debris
Shape & HBR
Box + 2 Pan, 17.7 m
Radar Cross Section
33.884 m², Large (>1 m²)

Expand to show TLE details & history
Last TLE update: 23 hours ago

TLE from 23 hours ago
0 STARLINK-31153
1 59044U 24038X   25348.71457282  .00004318  00000-0  16643-3 0  9996
2 59044  43.0005 143.3478 0001338 257.4094 102.6609 15.27560872101696
Epoch: 2025-12-14T17:08Z
TLE epoch observation values (Epoch: 2025-12-14T17:08:59.091Z)
Latitude
0.00004°
Longitude
162.47811°
Altitude
483.083 km
Speed
7.626 km/s
True Right ascension
09h 33m 23s
True Declination
0° 00' 00"
Sunlit
Object was in full shadow at epoch
Visualization orbit readout
Latitude
Unknown
Longitude
Unknown
Altitude
Unknown
Speed
Unknown
Apparent Right ascension
Unknown
Apparent Declination
Unknown
Sunlit
N/A
Visualization observer readout
Local Sidereal Time
15:08:57
Azimuth
Unknown
Elevation
Unknown
Doppler factor
Unknown
Orbital elements
Apogee altitude
485.97 km
Perigee altitude
484.133 km
Semi-major axis
6,863.188 km
Eccentricity
0.00013
Inclination
43.0005°
RAAN
143.3478°
Arg. of periapsis
257.4094°
True anomaly
102.67586°
Mean anomaly
102.6609°
Eccentric anomaly
102.66838°
Mean motion
3.81728 °/min
Orbital period
94.31 mins
BSTAR
0.00016643
Loading maneuver chart data...
Computing Atmospheric mass density...
Loading historical data...
Loading historical data...
Loading historical data...
Loading historical data...
Loading historical data...
Loading historical data...
Loading historical data...

Documentation

Showing up to 5 results
|